Time,TemperatureF,DewpointF,PressureIn,WindDirection,WindDirectionDegrees,WindSpeedMPH,WindSpeedGustMPH,Humidity,HourlyPrecipIn,Conditions,Clouds,dailyrainin,SolarRadiationWatts/m^2,SoftwareType,DateUTC
2013-01-16 00:02:00,70.1,62.9,30.05,SE,136,0.2,1.0,78,0.00,CLR,,0.00,0.0,WeatherDisplay:10.37,2013-01-16 05:02:00,
2013-01-16 00:03:00,70.1,62.9,30.05,SE,136,0.0,1.1,78,0.00,CLR,,0.00,0.0,WeatherDisplay:10.37,2013-01-16 05:03:00,
2013-01-16 00:04:00,70.1,62.9,30.05,SE,136,0.0,0.0,78,0.00,CLR,,0.00,0.0,WeatherDisplay:10.37,2013-01-16 05:04:00,
2013-01-16 00:09:00,70.0,62.8,30.05,SE,136,0.0,0.0,78,0.00,CLR,,0.00,0.0,WeatherDisplay:10.37,2013-01-16 05:09:00,
2013-01-16 00:14:00,69.9,63.1,30.05,SE,136,0.0,0.0,79,0.00,CLR,,0.00,0.0,WeatherDisplay:10.37,2013-01-16 05:14:00,
2013-01-16 00:19:00,69.9,63.4,30.05,SE,136,0.0,0.0,80,0.00,CLR,,0.00,0.0,WeatherDisplay:10.37,2013-01-16 05:19:00,
2013-01-16 00:24:00,69.8,63.7,30.05,SE,136,0.0,0.0,81,0.00,CLR,,0.00,0.0,WeatherDisplay:10.37,2013-01-16 05:24:00,
2013-01-16 00:29:00,69.7,63.6,30.05,SE,136,0.0,0.0,81,0.00,CLR,,0.00,0.0,WeatherDisplay:10.37,2013-01-16 05:29:00,
2013-01-16 00:34:00,69.5,63.4,30.05,SE,136,0.0,0.0,81,0.00,CLR,,0.00,0.0,WeatherDisplay:10.37,2013-01-16 05:34:00,
2013-01-16 00:39:00,69.4,63.3,30.05,SE,136,0.0,0.0,81,0.00,CLR,,0.00,0.0,WeatherDisplay:10.37,2013-01-16 05:39:00,
2013-01-16 00:44:00,69.2,63.5,30.05,SE,136,0.0,0.0,82,0.00,CLR,,0.00,0.0,WeatherDisplay:10.37,2013-01-16 05:44:00,
2013-01-16 00:49:00,69.1,63.4,30.05,SE,136,0.0,0.0,82,0.00,CLR,,0.00,0.0,WeatherDisplay:10.37,2013-01-16 05:49:00,
2013-01-16 00:54:00,69.0,63.3,30.05,SE,136,0.0,0.0,82,0.00,CLR,,0.00,0.0,WeatherDisplay:10.37,2013-01-16 05:54:00,
2013-01-16 01:00:00,68.9,63.2,30.05,SE,136,0.0,0.0,82,0.00,CLR,,0.00,0.0,WeatherDisplay:10.37,2013-01-16 06:00:00,
2013-01-16 01:05:00,68.8,63.1,30.05,SE,136,0.0,0.0,82,0.00,CLR,,0.00,0.0,WeatherDisplay:10.37,2013-01-16 06:05:00,
2013-01-16 01:10:00,68.7,63.0,30.05,SE,136,0.0,0.0,82,0.00,CLR,,0.00,0.0,WeatherDisplay:10.37,2013-01-16 06:10:00,
2013-01-16 01:16:00,68.6,62.9,30.05,SE,136,0.0,0.0,82,0.00,CLR,,0.00,0.0,WeatherDisplay:10.37,2013-01-16 06:16:00,
2013-01-16 01:21:00,68.4,62.7,30.05,SE,136,0.0,0.0,82,0.00,CLR,,0.00,0.0,WeatherDisplay:10.37,2013-01-16 06:21:00,
2013-01-16 01:26:00,68.2,62.8,30.05,SE,136,0.0,0.0,83,0.00,CLR,,0.00,0.0,WeatherDisplay:10.37,2013-01-16 06:26:00,
2013-01-16 01:31:00,67.9,62.2,30.05,SE,136,0.0,0.0,82,0.00,CLR,,0.00,0.0,WeatherDisplay:10.37,2013-01-16 06:31:00,
2013-01-16 01:36:00,67.7,62.0,30.05,SE,136,0.0,0.0,82,0.00,CLR,,0.00,0.0,WeatherDisplay:10.37,2013-01-16 06:36:00,
2013-01-16 01:41:00,67.4,62.1,30.05,SE,136,0.0,0.0,83,0.00,CLR,,0.00,0.0,WeatherDisplay:10.37,2013-01-16 06:41:00,
2013-01-16 01:46:00,67.2,62.2,30.05,SE,136,0.0,0.0,84,0.00,CLR,CLR,0.00,0.0,WeatherDisplay:10.37,2013-01-16 06:46:00,
2013-01-16 01:51:00,67.0,62.0,30.05,SE,136,0.0,0.0,84,0.00,CLR,,0.00,0.0,WeatherDisplay:10.37,2013-01-16 06:51:00,
2013-01-16 01:56:00,66.8,62.1,30.05,SE,136,0.0,0.0,85,0.00,CLR,CLR,0.00,0.0,WeatherDisplay:10.37,2013-01-16 06:56:00,
2013-01-16 02:01:00,66.6,62.3,30.05,SE,136,0.0,0.0,86,0.00,CLR,,0.00,0.0,WeatherDisplay:10.37,2013-01-16 07:01:00,
2013-01-16 02:06:00,66.5,62.2,30.05,SE,136,0.0,0.0,86,0.00,CLR,CLR,0.00,0.0,WeatherDisplay:10.37,2013-01-16 07:06:00,
2013-01-16 02:11:00,66.3,62.3,30.05,SE,136,0.0,0.0,87,0.00,CLR,CLR,0.00,0.0,WeatherDisplay:10.37,2013-01-16 07:11:00,
2013-01-16 02:16:00,66.2,62.2,30.05,SE,136,0.0,0.0,87,0.00,CLR,,0.00,0.0,WeatherDisplay:10.37,2013-01-16 07:16:00,
2013-01-16 02:21:00,66.1,62.4,30.05,SE,136,0.0,0.0,88,0.00,CLR,,0.00,0.0,WeatherDisplay:10.37,2013-01-16 07:21:00,
2013-01-16 02:26:00,66.1,62.4,30.05,SE,136,0.0,0.0,88,0.00,CLR,,0.00,0.0,WeatherDisplay:10.37,2013-01-16 07:26:00,
2013-01-16 02:31:00,66.1,62.4,30.05,SE,136,0.0,0.0,88,0.00,CLR,,0.00,0.0,WeatherDisplay:10.37,2013-01-16 07:31:00,
2013-01-16 02:36:00,66.2,62.2,30.05,SE,136,0.0,0.0,87,0.00,CLR,,0.00,0.0,WeatherDisplay:10.37,2013-01-16 07:36:00,
2013-01-16 02:41:00,66.2,62.2,30.05,SE,136,0.0,0.0,87,0.00,CLR,,0.00,0.0,WeatherDisplay:10.37,2013-01-16 07:41:00,
2013-01-16 02:46:00,66.1,61.8,30.05,SE,136,0.0,0.0,86,0.00,CLR,,0.00,0.0,WeatherDisplay:10.37,2013-01-16 07:46:00,
2013-01-16 02:51:00,66.0,62.0,30.05,SE,136,0.0,0.0,87,0.00,CLR,,0.00,0.0,WeatherDisplay:10.37,2013-01-16 07:51:00,
2013-01-16 02:56:00,65.8,61.8,30.05,SE,136,0.0,0.0,87,0.00,CLR,,0.00,0.0,WeatherDisplay:10.37,2013-01-16 07:56:00,
2013-01-16 03:01:00,65.7,61.7,30.05,SE,136,0.0,0.0,87,0.00,CLR,,0.00,0.0,WeatherDisplay:10.37,2013-01-16 08:01:00,
2013-01-16 03:06:00,65.6,61.6,30.05,SE,136,0.0,0.0,87,0.00,CLR,,0.00,0.0,WeatherDisplay:10.37,2013-01-16 08:06:00,
2013-01-16 03:11:00,65.4,61.4,30.05,SE,136,0.0,0.0,87,0.00,CLR,,0.00,0.0,WeatherDisplay:10.37,2013-01-16 08:11:00,
2013-01-16 04:01:00,63.9,60.9,30.05,SE,136,0.0,0.0,90,0.00,CLR,CLR,0.00,0.0,WeatherDisplay:10.37,2013-01-16 09:01:00,
2013-01-16 04:06:00,63.9,60.9,30.05,SE,135,0.0,0.0,90,0.00,CLR,CLR,0.00,0.0,WeatherDisplay:10.37,2013-01-16 09:06:00,
2013-01-16 04:11:00,63.9,60.9,30.05,SE,135,0.0,0.0,90,0.00,CLR,CLR,0.00,0.0,WeatherDisplay:10.37,2013-01-16 09:11:00,
2013-01-16 04:16:00,63.9,60.9,30.05,SE,135,0.0,0.0,90,0.00,CLR,CLR,0.00,0.0,WeatherDisplay:10.37,2013-01-16 09:16:00,
2013-01-16 04:21:00,63.9,60.9,30.05,SE,135,0.0,0.0,90,0.00,CLR,CLR,0.00,0.0,WeatherDisplay:10.37,2013-01-16 09:21:00,
2013-01-16 04:26:00,63.9,60.9,30.05,SE,135,0.0,0.0,90,0.00,CLR,CLR,0.00,0.0,WeatherDisplay:10.37,2013-01-16 09:26:00,
2013-01-16 04:31:00,63.3,60.6,30.05,SE,135,0.0,0.0,91,0.00,CLR,CLR,0.00,0.0,WeatherDisplay:10.37,2013-01-16 09:31:00,
2013-01-16 04:36:00,63.3,60.6,30.05,SE,135,0.0,0.0,91,0.00,CLR,CLR,0.00,0.0,WeatherDisplay:10.37,2013-01-16 09:36:00,
2013-01-16 04:41:00,63.3,60.6,30.05,SE,135,0.0,0.0,91,0.00,CLR,CLR,0.00,0.0,WeatherDisplay:10.37,2013-01-16 09:41:00,
2013-01-16 04:46:00,63.3,60.6,30.05,SE,135,0.0,0.0,91,0.00,CLR,CLR,0.00,0.0,WeatherDisplay:10.37,2013-01-16 09:46:00,
2013-01-16 04:51:00,63.3,60.6,30.05,SE,135,0.0,0.0,91,0.00,CLR,CLR,0.00,0.0,WeatherDisplay:10.37,2013-01-16 09:51:00,
2013-01-16 04:56:00,63.3,60.6,30.05,SE,135,0.0,0.0,91,0.00,CLR,CLR,0.00,0.0,WeatherDisplay:10.37,2013-01-16 09:56:00,
2013-01-16 05:01:00,62.8,60.4,30.05,SE,135,0.0,0.0,92,0.00,CLR,CLR,0.00,0.0,WeatherDisplay:10.37,2013-01-16 10:01:00,
2013-01-16 05:06:00,62.8,60.4,30.05,SE,135,0.0,0.0,92,0.00,CLR,CLR,0.00,0.0,WeatherDisplay:10.37,2013-01-16 10:06:00,
2013-01-16 05:11:00,62.8,60.4,30.05,SE,135,0.0,0.0,92,0.00,CLR,CLR,0.00,0.0,WeatherDisplay:10.37,2013-01-16 10:11:00,
2013-01-16 05:16:00,62.8,60.4,30.05,SE,135,0.0,0.0,92,0.00,CLR,CLR,0.00,0.0,WeatherDisplay:10.37,2013-01-16 10:16:00,
2013-01-16 05:21:00,62.8,60.4,30.05,SE,135,0.0,0.0,92,0.00,CLR,CLR,0.00,0.0,WeatherDisplay:10.37,2013-01-16 10:21:00,
2013-01-16 05:26:00,62.8,60.4,30.05,SE,135,0.0,0.0,92,0.00,CLR,CLR,0.00,0.0,WeatherDisplay:10.37,2013-01-16 10:26:00,
2013-01-16 05:31:00,62.6,60.2,30.05,SE,135,0.0,0.0,92,0.00,CLR,CLR,0.00,0.0,WeatherDisplay:10.37,2013-01-16 10:31:00,
2013-01-16 05:36:00,62.6,60.2,30.05,SE,135,0.0,0.0,92,0.00,CLR,CLR,0.00,0.0,WeatherDisplay:10.37,2013-01-16 10:36:00,
2013-01-16 05:41:00,62.6,60.2,30.05,SE,135,0.0,0.0,92,0.00,CLR,CLR,0.00,0.0,WeatherDisplay:10.37,2013-01-16 10:41:00,
2013-01-16 05:46:00,62.6,60.2,30.05,SE,135,0.0,0.0,92,0.00,CLR,CLR,0.00,0.0,WeatherDisplay:10.37,2013-01-16 10:46:00,
2013-01-16 05:51:00,62.6,60.2,30.05,SE,135,0.0,0.0,92,0.00,CLR,CLR,0.00,0.0,WeatherDisplay:10.37,2013-01-16 10:51:00,
2013-01-16 05:56:00,62.6,60.2,30.05,SE,135,0.0,0.0,92,0.00,CLR,CLR,0.00,0.0,WeatherDisplay:10.37,2013-01-16 10:56:00,
2013-01-16 06:01:00,62.4,60.3,30.05,SE,135,0.0,0.0,93,0.00,CLR,CLR,0.00,0.0,WeatherDisplay:10.37,2013-01-16 11:01:00,
2013-01-16 06:06:00,62.4,60.3,30.05,SE,135,0.0,0.0,93,0.00,CLR,CLR,0.00,0.0,WeatherDisplay:10.37,2013-01-16 11:06:00,
2013-01-16 06:11:00,62.4,60.3,30.05,SE,135,0.0,0.0,93,0.00,CLR,CLR,0.00,0.0,WeatherDisplay:10.37,2013-01-16 11:11:00,
2013-01-16 06:16:00,62.4,60.3,30.05,SE,135,0.0,0.0,93,0.00,CLR,CLR,0.00,0.0,WeatherDisplay:10.37,2013-01-16 11:16:00,
2013-01-16 06:21:00,62.4,60.3,30.05,SE,135,0.0,0.0,93,0.00,CLR,CLR,0.00,0.0,WeatherDisplay:10.37,2013-01-16 11:21:00,
2013-01-16 06:26:00,62.4,60.3,30.05,SE,135,0.0,0.0,93,0.00,CLR,CLR,0.00,0.0,WeatherDisplay:10.37,2013-01-16 11:26:00,
2013-01-16 06:31:00,62.2,60.2,30.05,SE,135,0.0,0.0,93,0.00,CLR,CLR,0.00,0.0,WeatherDisplay:10.37,2013-01-16 11:31:00,
2013-01-16 06:36:00,62.2,60.2,30.05,SE,135,0.0,0.0,93,0.00,CLR,CLR,0.00,0.0,WeatherDisplay:10.37,2013-01-16 11:36:00,
2013-01-16 06:41:00,62.2,60.2,30.05,SE,135,0.0,0.0,93,0.00,CLR,CLR,0.00,0.0,WeatherDisplay:10.37,2013-01-16 11:41:00,
2013-01-16 06:46:00,62.2,60.2,30.05,SE,135,0.0,0.0,93,0.00,CLR,CLR,0.00,0.0,WeatherDisplay:10.37,2013-01-16 11:46:00,
2013-01-16 06:51:00,62.2,60.2,30.05,SE,135,0.0,0.0,93,0.00,CLR,CLR,0.00,0.0,WeatherDisplay:10.37,2013-01-16 11:51:00,
2013-01-16 06:56:00,62.2,60.2,30.05,SE,135,0.0,0.0,93,0.00,CLR,CLR,0.00,0.0,WeatherDisplay:10.37,2013-01-16 11:56:00,
2013-01-16 07:01:00,62.3,60.2,30.06,SE,135,0.0,0.0,93,0.00,CLR,CLR,0.00,0.0,WeatherDisplay:10.37,2013-01-16 12:01:00,
2013-01-16 07:06:00,62.3,60.2,30.06,SE,135,0.0,0.0,93,0.00,CLR,CLR,0.00,0.0,WeatherDisplay:10.37,2013-01-16 12:06:00,
2013-01-16 07:11:00,62.3,60.2,30.06,SE,135,0.0,0.0,93,0.00,CLR,CLR,0.00,0.0,WeatherDisplay:10.37,2013-01-16 12:11:00,
2013-01-16 07:16:00,62.3,60.2,30.06,SE,135,0.0,0.0,93,0.00,CLR,CLR,0.00,0.0,WeatherDisplay:10.37,2013-01-16 12:16:00,
2013-01-16 07:21:00,62.3,60.2,30.06,SE,135,0.0,0.0,93,0.00,CLR,CLR,0.00,0.0,WeatherDisplay:10.37,2013-01-16 12:21:00,
2013-01-16 07:26:00,62.3,60.2,30.06,SE,135,0.0,0.0,93,0.00,CLR,CLR,0.00,0.0,WeatherDisplay:10.37,2013-01-16 12:26:00,
2013-01-16 07:31:00,62.3,60.2,30.07,SE,135,0.0,0.0,93,0.00,CLR,CLR,0.00,6.0,WeatherDisplay:10.37,2013-01-16 12:31:00,
2013-01-16 07:36:00,62.3,60.2,30.07,SE,135,0.0,0.0,93,0.00,CLR,CLR,0.00,6.0,WeatherDisplay:10.37,2013-01-16 12:36:00,
2013-01-16 07:41:00,62.3,60.2,30.07,SE,135,0.0,0.0,93,0.00,CLR,CLR,0.00,6.0,WeatherDisplay:10.37,2013-01-16 12:41:00,
2013-01-16 07:46:00,62.3,60.2,30.07,SE,135,0.0,0.0,93,0.00,CLR,CLR,0.00,6.0,WeatherDisplay:10.37,2013-01-16 12:46:00,
2013-01-16 07:51:00,62.3,60.2,30.07,SE,135,0.0,0.0,93,0.00,CLR,CLR,0.00,6.0,WeatherDisplay:10.37,2013-01-16 12:51:00,
2013-01-16 07:56:00,62.3,60.2,30.07,SE,135,0.0,0.0,93,0.00,CLR,CLR,0.00,6.0,WeatherDisplay:10.37,2013-01-16 12:56:00,
2013-01-16 08:01:00,63.6,62.4,30.08,SE,135,0.0,0.0,96,0.00,CLR,CLR,0.00,43.0,WeatherDisplay:10.37,2013-01-16 13:01:00,
2013-01-16 08:06:00,63.6,62.4,30.08,SE,135,0.0,0.0,96,0.00,CLR,CLR,0.00,43.0,WeatherDisplay:10.37,2013-01-16 13:06:00,
2013-01-16 08:11:00,63.6,62.4,30.08,SE,135,0.0,0.0,96,0.00,CLR,CLR,0.00,43.0,WeatherDisplay:10.37,2013-01-16 13:11:00,
2013-01-16 08:16:00,63.6,62.4,30.08,SE,135,0.0,0.0,96,0.00,CLR,CLR,0.00,43.0,WeatherDisplay:10.37,2013-01-16 13:16:00,
2013-01-16 08:21:00,63.6,62.4,30.08,SE,135,0.0,0.0,96,0.00,CLR,CLR,0.00,43.0,WeatherDisplay:10.37,2013-01-16 13:21:00,
2013-01-16 08:26:00,63.6,62.4,30.08,SE,135,0.0,0.0,96,0.00,CLR,CLR,0.00,43.0,WeatherDisplay:10.37,2013-01-16 13:26:00,
2013-01-16 08:31:00,66.3,64.5,30.09,SE,135,0.0,0.0,94,0.00,CLR,CLR,0.00,97.0,WeatherDisplay:10.37,2013-01-16 13:31:00,
2013-01-16 08:36:00,66.3,64.5,30.09,SE,135,0.0,0.0,94,0.00,CLR,CLR,0.00,97.0,WeatherDisplay:10.37,2013-01-16 13:36:00,
2013-01-16 08:41:00,66.3,64.5,30.09,SE,135,0.0,0.0,94,0.00,CLR,CLR,0.00,97.0,WeatherDisplay:10.37,2013-01-16 13:41:00,
2013-01-16 08:46:00,66.3,64.5,30.09,SE,135,0.0,0.0,94,0.00,CLR,CLR,0.00,97.0,WeatherDisplay:10.37,2013-01-16 13:46:00,
2013-01-16 08:51:00,66.3,64.5,30.09,SE,135,0.0,0.0,94,0.00,CLR,CLR,0.00,97.0,WeatherDisplay:10.37,2013-01-16 13:51:00,
2013-01-16 08:56:00,66.3,64.5,30.09,SE,135,0.0,0.0,94,0.00,CLR,CLR,0.00,97.0,WeatherDisplay:10.37,2013-01-16 13:56:00,
2013-01-16 09:01:00,70.8,66.4,30.09,SE,135,0.0,3.0,86,0.00,OVC,OVC,0.00,174.0,WeatherDisplay:10.37,2013-01-16 14:01:00,
2013-01-16 09:06:00,70.8,66.4,30.09,SE,135,0.0,3.0,86,0.00,OVC,OVC,0.00,174.0,WeatherDisplay:10.37,2013-01-16 14:06:00,
2013-01-16 09:11:00,70.8,66.4,30.09,SE,135,0.0,3.0,86,0.00,OVC,OVC,0.00,174.0,WeatherDisplay:10.37,2013-01-16 14:11:00,
2013-01-16 09:16:00,70.8,66.4,30.09,SE,135,0.0,3.0,86,0.00,OVC,OVC,0.00,174.0,WeatherDisplay:10.37,2013-01-16 14:16:00,
2013-01-16 09:21:00,70.8,66.4,30.09,SE,135,0.0,3.0,86,0.00,OVC,OVC,0.00,174.0,WeatherDisplay:10.37,2013-01-16 14:21:00,
2013-01-16 09:26:00,70.8,66.4,30.09,SE,135,0.0,3.0,86,0.00,OVC,OVC,0.00,174.0,WeatherDisplay:10.37,2013-01-16 14:26:00,
2013-01-16 09:31:00,79.4,68.8,30.10,SE,135,0.0,3.0,70,0.00,OVC,OVC,0.00,339.0,WeatherDisplay:10.37,2013-01-16 14:31:00,
2013-01-16 09:36:00,79.4,68.8,30.10,SE,135,0.0,0.0,70,0.00,OVC,OVC,0.00,339.0,WeatherDisplay:10.37,2013-01-16 14:36:00,
2013-01-16 09:41:00,79.4,68.8,30.10,SE,135,0.0,0.0,70,0.00,OVC,OVC,0.00,339.0,WeatherDisplay:10.37,2013-01-16 14:41:00,
2013-01-16 09:46:00,79.4,68.8,30.10,SE,135,0.0,0.0,70,0.00,OVC,OVC,0.00,339.0,WeatherDisplay:10.37,2013-01-16 14:46:00,
2013-01-16 09:51:00,79.4,68.8,30.10,SE,135,0.0,0.0,70,0.00,OVC,OVC,0.00,339.0,WeatherDisplay:10.37,2013-01-16 14:51:00,
2013-01-16 09:56:00,79.4,68.8,30.10,SE,135,0.0,0.0,70,0.00,OVC,OVC,0.00,339.0,WeatherDisplay:10.37,2013-01-16 14:56:00,
2013-01-16 10:01:00,80.5,67.6,30.10,SE,135,0.0,4.0,65,0.00,OVC,OVC,0.00,339.0,WeatherDisplay:10.37,2013-01-16 15:01:00,
2013-01-16 10:06:00,80.5,67.6,30.10,SE,135,0.0,4.0,65,0.00,OVC,OVC,0.00,339.0,WeatherDisplay:10.37,2013-01-16 15:06:00,
2013-01-16 10:11:00,80.5,67.6,30.10,SE,135,0.0,4.0,65,0.00,OVC,OVC,0.00,339.0,WeatherDisplay:10.37,2013-01-16 15:11:00,
2013-01-16 10:16:00,80.5,67.6,30.10,SE,135,0.0,4.0,65,0.00,OVC,OVC,0.00,339.0,WeatherDisplay:10.37,2013-01-16 15:16:00,
2013-01-16 10:21:00,80.5,67.6,30.10,SE,135,0.0,4.0,65,0.00,OVC,OVC,0.00,339.0,WeatherDisplay:10.37,2013-01-16 15:21:00,
2013-01-16 10:26:00,80.5,67.6,30.10,SE,135,0.0,4.0,65,0.00,OVC,OVC,0.00,339.0,WeatherDisplay:10.37,2013-01-16 15:26:00,
2013-01-16 10:31:00,78.7,68.1,30.10,SE,139,1.0,5.0,70,0.00,OVC,OVC,0.00,213.0,WeatherDisplay:10.37,2013-01-16 15:31:00,
2013-01-16 10:36:00,78.7,68.1,30.10,SSE,161,1.0,5.0,70,0.00,OVC,OVC,0.00,213.0,WeatherDisplay:10.37,2013-01-16 15:36:00,
2013-01-16 10:41:00,78.7,68.1,30.10,South,180,1.0,5.0,70,0.00,OVC,OVC,0.00,213.0,WeatherDisplay:10.37,2013-01-16 15:41:00,
2013-01-16 10:46:00,78.7,68.1,30.10,South,180,1.0,5.0,70,0.00,OVC,OVC,0.00,213.0,WeatherDisplay:10.37,2013-01-16 15:46:00,
2013-01-16 10:51:00,78.7,68.1,30.10,South,180,1.0,5.0,70,0.00,OVC,OVC,0.00,213.0,WeatherDisplay:10.37,2013-01-16 15:51:00,
2013-01-16 10:56:00,78.7,68.1,30.10,South,180,1.0,5.0,70,0.00,OVC,OVC,0.00,213.0,WeatherDisplay:10.37,2013-01-16 15:56:00,
2013-01-16 11:01:00,80.7,68.7,30.09,South,180,3.0,12.0,67,0.00,OVC,OVC,0.00,582.0,WeatherDisplay:10.37,2013-01-16 16:01:00,
2013-01-16 11:06:00,80.7,68.7,30.09,South,180,3.0,12.0,67,0.00,OVC,OVC,0.00,582.0,WeatherDisplay:10.37,2013-01-16 16:06:00,
2013-01-16 11:11:00,80.7,68.7,30.09,South,180,3.0,12.0,67,0.00,OVC,OVC,0.00,582.0,WeatherDisplay:10.37,2013-01-16 16:11:00,
2013-01-16 11:16:00,80.7,68.7,30.09,South,180,3.0,12.0,67,0.00,OVC,OVC,0.00,582.0,WeatherDisplay:10.37,2013-01-16 16:16:00,
2013-01-16 11:21:00,80.7,68.7,30.09,South,180,3.0,12.0,67,0.00,OVC,OVC,0.00,582.0,WeatherDisplay:10.37,2013-01-16 16:21:00,
2013-01-16 11:26:00,80.7,68.7,30.09,South,180,3.0,12.0,67,0.00,OVC,OVC,0.00,582.0,WeatherDisplay:10.37,2013-01-16 16:26:00,
2013-01-16 11:31:00,82.1,70.1,30.07,South,180,3.0,13.0,67,0.00,OVC,OVC,0.00,608.0,WeatherDisplay:10.37,2013-01-16 16:31:00,
2013-01-16 11:36:00,82.1,70.1,30.07,South,180,3.0,13.0,67,0.00,OVC,OVC,0.00,608.0,WeatherDisplay:10.37,2013-01-16 16:36:00,
2013-01-16 11:41:00,82.1,70.1,30.07,South,180,3.0,13.0,67,0.00,OVC,OVC,0.00,608.0,WeatherDisplay:10.37,2013-01-16 16:41:00,
2013-01-16 11:46:00,82.1,70.1,30.07,South,180,3.0,13.0,67,0.00,OVC,OVC,0.00,608.0,WeatherDisplay:10.37,2013-01-16 16:46:00,
2013-01-16 11:51:00,82.1,70.1,30.07,South,180,3.0,13.0,67,0.00,OVC,OVC,0.00,608.0,WeatherDisplay:10.37,2013-01-16 16:51:00,
2013-01-16 11:56:00,82.1,70.1,30.07,South,180,3.0,13.0,67,0.00,OVC,OVC,0.00,608.0,WeatherDisplay:10.37,2013-01-16 16:56:00,
2013-01-16 12:01:00,81.7,67.9,30.06,South,180,3.0,13.0,63,0.00,OVC,OVC,0.00,623.0,WeatherDisplay:10.37,2013-01-16 17:01:00,
2013-01-16 12:06:00,81.7,67.9,30.06,South,180,3.0,12.0,63,0.00,OVC,OVC,0.00,623.0,WeatherDisplay:10.37,2013-01-16 17:06:00,
2013-01-16 12:11:00,81.7,67.9,30.06,South,180,3.0,12.0,63,0.00,OVC,OVC,0.00,623.0,WeatherDisplay:10.37,2013-01-16 17:11:00,
2013-01-16 12:16:00,81.7,67.9,30.06,South,180,3.0,12.0,63,0.00,OVC,OVC,0.00,623.0,WeatherDisplay:10.37,2013-01-16 17:16:00,
2013-01-16 12:21:00,81.7,67.9,30.06,South,180,3.0,12.0,63,0.00,OVC,OVC,0.00,623.0,WeatherDisplay:10.37,2013-01-16 17:21:00,
2013-01-16 12:26:00,81.7,67.9,30.06,South,180,3.0,12.0,63,0.00,OVC,OVC,0.00,623.0,WeatherDisplay:10.37,2013-01-16 17:26:00,
2013-01-16 12:31:00,81.4,68.1,30.05,South,180,3.0,12.0,64,0.00,OVC,OVC,0.00,623.0,WeatherDisplay:10.37,2013-01-16 17:31:00,
2013-01-16 12:36:00,81.4,68.1,30.05,South,180,3.0,11.0,64,0.00,OVC,OVC,0.00,623.0,WeatherDisplay:10.37,2013-01-16 17:36:00,
2013-01-16 12:41:00,81.4,68.1,30.05,South,180,3.0,11.0,64,0.00,OVC,OVC,0.00,623.0,WeatherDisplay:10.37,2013-01-16 17:41:00,
2013-01-16 12:46:00,81.4,68.1,30.05,South,180,3.0,11.0,64,0.00,OVC,OVC,0.00,623.0,WeatherDisplay:10.37,2013-01-16 17:46:00,
2013-01-16 12:51:00,81.4,68.1,30.05,South,180,3.0,11.0,64,0.00,OVC,OVC,0.00,623.0,WeatherDisplay:10.37,2013-01-16 17:51:00,
2013-01-16 12:56:00,81.4,68.1,30.05,South,180,3.0,11.0,64,0.00,OVC,OVC,0.00,623.0,WeatherDisplay:10.37,2013-01-16 17:56:00,
2013-01-16 13:01:00,81.2,67.9,30.03,South,176,3.0,13.0,64,0.00,OVC,OVC,0.00,586.0,WeatherDisplay:10.37,2013-01-16 18:01:00,
2013-01-16 13:06:00,81.2,67.9,30.03,SE,144,3.0,13.0,64,0.00,OVC,OVC,0.00,586.0,WeatherDisplay:10.37,2013-01-16 18:06:00,
2013-01-16 13:11:00,81.2,67.9,30.03,ESE,112,3.0,13.0,64,0.00,OVC,OVC,0.00,586.0,WeatherDisplay:10.37,2013-01-16 18:11:00,
2013-01-16 13:16:00,81.2,67.9,30.03,ESE,112,3.0,13.0,64,0.00,OVC,OVC,0.00,586.0,WeatherDisplay:10.37,2013-01-16 18:16:00,
2013-01-16 13:21:00,81.2,67.9,30.03,ESE,112,3.0,13.0,64,0.00,OVC,OVC,0.00,586.0,WeatherDisplay:10.37,2013-01-16 18:21:00,
2013-01-16 13:26:00,81.2,67.9,30.03,ESE,112,3.0,13.0,64,0.00,OVC,OVC,0.00,586.0,WeatherDisplay:10.37,2013-01-16 18:26:00,
2013-01-16 13:31:00,81.8,69.3,30.03,ESE,115,3.0,14.0,66,0.00,OVC,OVC,0.00,598.0,WeatherDisplay:10.37,2013-01-16 18:31:00,
2013-01-16 13:36:00,81.8,69.3,30.03,SE,127,3.0,14.0,66,0.00,OVC,OVC,0.00,598.0,WeatherDisplay:10.37,2013-01-16 18:36:00,
2013-01-16 13:41:00,81.8,69.3,30.03,SE,135,3.0,14.0,66,0.00,OVC,OVC,0.00,598.0,WeatherDisplay:10.37,2013-01-16 18:41:00,
2013-01-16 13:46:00,81.8,69.3,30.03,SE,135,3.0,14.0,66,0.00,OVC,OVC,0.00,598.0,WeatherDisplay:10.37,2013-01-16 18:46:00,
2013-01-16 13:51:00,81.8,69.3,30.03,SE,135,3.0,14.0,66,0.00,OVC,OVC,0.00,598.0,WeatherDisplay:10.37,2013-01-16 18:51:00,
2013-01-16 13:56:00,81.8,69.3,30.03,SE,135,3.0,14.0,66,0.00,OVC,OVC,0.00,598.0,WeatherDisplay:10.37,2013-01-16 18:56:00,
2013-01-16 14:01:00,82.3,68.4,30.02,SE,138,3.0,14.0,63,0.00,OVC,OVC,0.00,580.0,WeatherDisplay:10.37,2013-01-16 19:01:00,
2013-01-16 14:06:00,82.3,68.4,30.02,SSE,159,3.0,12.0,63,0.00,OVC,OVC,0.00,580.0,WeatherDisplay:10.37,2013-01-16 19:06:00,
2013-01-16 14:11:00,82.3,68.4,30.02,South,180,3.0,12.0,63,0.00,OVC,OVC,0.00,580.0,WeatherDisplay:10.37,2013-01-16 19:11:00,
2013-01-16 14:16:00,82.3,68.4,30.02,South,180,3.0,12.0,63,0.00,OVC,OVC,0.00,580.0,WeatherDisplay:10.37,2013-01-16 19:16:00,
2013-01-16 14:21:00,82.3,68.4,30.02,South,180,3.0,12.0,63,0.00,OVC,OVC,0.00,580.0,WeatherDisplay:10.37,2013-01-16 19:21:00,
2013-01-16 14:26:00,82.3,68.4,30.02,South,180,3.0,12.0,63,0.00,OVC,OVC,0.00,580.0,WeatherDisplay:10.37,2013-01-16 19:26:00,
2013-01-16 14:31:00,82.5,68.2,30.01,South,173,3.0,12.0,62,0.00,OVC,OVC,0.00,558.0,WeatherDisplay:10.37,2013-01-16 19:31:00,
2013-01-16 14:36:00,82.5,68.2,30.01,SE,133,3.0,10.0,62,0.00,OVC,OVC,0.00,558.0,WeatherDisplay:10.37,2013-01-16 19:36:00,
2013-01-16 14:41:00,82.5,68.2,30.01,ESE,112,3.0,10.0,62,0.00,OVC,OVC,0.00,558.0,WeatherDisplay:10.37,2013-01-16 19:41:00,
2013-01-16 14:46:00,82.5,68.2,30.01,ESE,112,3.0,10.0,62,0.00,OVC,OVC,0.00,558.0,WeatherDisplay:10.37,2013-01-16 19:46:00,
2013-01-16 14:51:00,82.5,68.2,30.01,ESE,112,3.0,10.0,62,0.00,OVC,OVC,0.00,558.0,WeatherDisplay:10.37,2013-01-16 19:51:00,
2013-01-16 14:56:00,82.5,68.2,30.01,ESE,112,3.0,10.0,62,0.00,OVC,OVC,0.00,558.0,WeatherDisplay:10.37,2013-01-16 19:56:00,
2013-01-16 15:01:00,82.0,69.1,30.01,ESE,112,3.0,14.0,65,0.00,OVC,OVC,0.00,454.0,WeatherDisplay:10.37,2013-01-16 20:01:00,
2013-01-16 15:06:00,82.0,69.1,30.01,ESE,112,3.0,14.0,65,0.00,OVC,OVC,0.00,454.0,WeatherDisplay:10.37,2013-01-16 20:06:00,
2013-01-16 15:11:00,82.0,69.1,30.01,ESE,112,3.0,14.0,65,0.00,OVC,OVC,0.00,454.0,WeatherDisplay:10.37,2013-01-16 20:11:00,
2013-01-16 15:16:00,82.0,69.1,30.01,ESE,112,3.0,14.0,65,0.00,OVC,OVC,0.00,454.0,WeatherDisplay:10.37,2013-01-16 20:16:00,
2013-01-16 15:21:00,82.0,69.1,30.01,ESE,112,3.0,14.0,65,0.00,OVC,OVC,0.00,454.0,WeatherDisplay:10.37,2013-01-16 20:21:00,
2013-01-16 15:26:00,82.0,69.1,30.01,ESE,112,3.0,14.0,65,0.00,OVC,OVC,0.00,454.0,WeatherDisplay:10.37,2013-01-16 20:26:00,
2013-01-16 15:31:00,80.8,69.2,30.02,ESE,112,3.0,14.0,68,0.00,OVC,OVC,0.00,320.0,WeatherDisplay:10.37,2013-01-16 20:31:00,
2013-01-16 15:36:00,80.8,69.2,30.02,ESE,112,3.0,12.0,68,0.00,OVC,OVC,0.00,320.0,WeatherDisplay:10.37,2013-01-16 20:36:00,
2013-01-16 15:41:00,80.8,69.2,30.02,ESE,112,3.0,12.0,68,0.00,OVC,OVC,0.00,320.0,WeatherDisplay:10.37,2013-01-16 20:41:00,
2013-01-16 15:46:00,80.8,69.2,30.02,ESE,112,3.0,12.0,68,0.00,OVC,OVC,0.00,320.0,WeatherDisplay:10.37,2013-01-16 20:46:00,
2013-01-16 15:51:00,80.8,69.2,30.02,ESE,112,3.0,12.0,68,0.00,OVC,OVC,0.00,320.0,WeatherDisplay:10.37,2013-01-16 20:51:00,
2013-01-16 15:56:00,80.8,69.2,30.02,ESE,112,3.0,12.0,68,0.00,OVC,OVC,0.00,320.0,WeatherDisplay:10.37,2013-01-16 20:56:00,
2013-01-16 16:01:00,79.2,68.1,30.03,ESE,112,3.0,12.0,69,0.00,CLR,CLR,0.00,277.0,WeatherDisplay:10.37,2013-01-16 21:01:00,
2013-01-16 16:06:00,79.2,68.1,30.03,ESE,112,3.0,11.0,69,0.00,CLR,CLR,0.00,277.0,WeatherDisplay:10.37,2013-01-16 21:06:00,
2013-01-16 16:11:00,79.2,68.1,30.03,ESE,112,3.0,11.0,69,0.00,CLR,CLR,0.00,277.0,WeatherDisplay:10.37,2013-01-16 21:11:00,
2013-01-16 16:16:00,79.2,68.1,30.03,ESE,112,3.0,11.0,69,0.00,CLR,CLR,0.00,277.0,WeatherDisplay:10.37,2013-01-16 21:16:00,
2013-01-16 16:21:00,79.2,68.1,30.03,ESE,112,3.0,11.0,69,0.00,CLR,CLR,0.00,277.0,WeatherDisplay:10.37,2013-01-16 21:21:00,
2013-01-16 16:26:00,79.2,68.1,30.03,ESE,112,3.0,11.0,69,0.00,CLR,CLR,0.00,277.0,WeatherDisplay:10.37,2013-01-16 21:26:00,
2013-01-16 16:31:00,78.3,68.1,30.02,ESE,113,2.0,11.0,71,0.00,CLR,CLR,0.00,59.0,WeatherDisplay:10.37,2013-01-16 21:31:00,
2013-01-16 16:36:00,78.3,68.1,30.02,ESE,122,2.0,10.0,71,0.00,CLR,CLR,0.00,59.0,WeatherDisplay:10.37,2013-01-16 21:36:00,
2013-01-16 16:41:00,78.3,68.1,30.02,SE,135,2.0,10.0,71,0.00,CLR,CLR,0.00,59.0,WeatherDisplay:10.37,2013-01-16 21:41:00,
2013-01-16 16:46:00,78.3,68.1,30.02,SE,135,2.0,10.0,71,0.00,CLR,CLR,0.00,59.0,WeatherDisplay:10.37,2013-01-16 21:46:00,
2013-01-16 16:51:00,78.3,68.1,30.02,SE,135,2.0,10.0,71,0.00,CLR,CLR,0.00,59.0,WeatherDisplay:10.37,2013-01-16 21:51:00,
2013-01-16 16:56:00,78.3,68.1,30.02,SE,135,2.0,10.0,71,0.00,CLR,CLR,0.00,59.0,WeatherDisplay:10.37,2013-01-16 21:56:00,
2013-01-16 17:01:00,77.4,67.7,30.03,SE,133,2.0,10.0,72,0.00,CLR,CLR,0.00,83.0,WeatherDisplay:10.37,2013-01-16 22:01:00,
2013-01-16 17:06:00,77.4,67.7,30.03,ESE,121,2.0,8.0,72,0.00,CLR,CLR,0.00,83.0,WeatherDisplay:10.37,2013-01-16 22:06:00,
2013-01-16 17:11:00,77.4,67.7,30.03,ESE,112,2.0,8.0,72,0.00,CLR,CLR,0.00,83.0,WeatherDisplay:10.37,2013-01-16 22:11:00,
2013-01-16 17:16:00,77.4,67.7,30.03,ESE,112,2.0,8.0,72,0.00,CLR,CLR,0.00,83.0,WeatherDisplay:10.37,2013-01-16 22:16:00,
2013-01-16 17:21:00,77.4,67.7,30.03,ESE,112,2.0,8.0,72,0.00,CLR,CLR,0.00,83.0,WeatherDisplay:10.37,2013-01-16 22:21:00,
2013-01-16 17:26:00,77.4,67.7,30.03,ESE,112,2.0,8.0,72,0.00,CLR,CLR,0.00,83.0,WeatherDisplay:10.37,2013-01-16 22:26:00,
2013-01-16 17:31:00,76.7,68.2,30.04,ESE,115,1.0,8.0,75,0.00,CLR,CLR,0.00,37.0,WeatherDisplay:10.37,2013-01-16 22:31:00,
2013-01-16 17:36:00,76.7,68.2,30.04,SE,140,1.0,6.0,75,0.00,CLR,CLR,0.00,37.0,WeatherDisplay:10.37,2013-01-16 22:36:00,
2013-01-16 17:41:00,76.7,68.2,30.04,South,180,1.0,6.0,75,0.00,CLR,CLR,0.00,37.0,WeatherDisplay:10.37,2013-01-16 22:41:00,
2013-01-16 17:46:00,76.7,68.2,30.04,South,180,1.0,6.0,75,0.00,CLR,CLR,0.00,37.0,WeatherDisplay:10.37,2013-01-16 22:46:00,
2013-01-16 17:51:00,76.7,68.2,30.04,South,180,1.0,6.0,75,0.00,CLR,CLR,0.00,37.0,WeatherDisplay:10.37,2013-01-16 22:51:00,
2013-01-16 17:56:00,76.7,68.2,30.04,South,180,1.0,6.0,75,0.00,CLR,CLR,0.00,37.0,WeatherDisplay:10.37,2013-01-16 22:56:00,
2013-01-16 18:01:00,75.6,68.3,30.03,South,180,1.0,7.0,78,0.00,CLR,CLR,0.00,6.0,WeatherDisplay:10.37,2013-01-16 23:01:00,
2013-01-16 18:06:00,75.6,68.3,30.03,South,180,1.0,7.0,78,0.00,CLR,CLR,0.00,6.0,WeatherDisplay:10.37,2013-01-16 23:06:00,
2013-01-16 18:11:00,75.6,68.3,30.03,South,180,1.0,7.0,78,0.00,CLR,CLR,0.00,6.0,WeatherDisplay:10.37,2013-01-16 23:11:00,
2013-01-16 18:16:00,75.6,68.3,30.03,South,180,1.0,7.0,78,0.00,CLR,CLR,0.00,6.0,WeatherDisplay:10.37,2013-01-16 23:16:00,
2013-01-16 18:21:00,75.6,68.3,30.03,South,180,1.0,7.0,78,0.00,CLR,CLR,0.00,6.0,WeatherDisplay:10.37,2013-01-16 23:21:00,
2013-01-16 18:26:00,75.6,68.3,30.03,South,180,1.0,7.0,78,0.00,CLR,CLR,0.00,6.0,WeatherDisplay:10.37,2013-01-16 23:26:00,
2013-01-16 18:31:00,74.8,68.2,30.04,South,180,1.0,8.0,80,0.00,CLR,CLR,0.00,0.0,WeatherDisplay:10.37,2013-01-16 23:31:00,
2013-01-16 18:36:00,74.8,68.2,30.04,South,180,1.0,8.0,80,0.00,CLR,CLR,0.00,0.0,WeatherDisplay:10.37,2013-01-16 23:36:00,
2013-01-16 18:41:00,74.8,68.2,30.04,South,180,1.0,8.0,80,0.00,CLR,CLR,0.00,0.0,WeatherDisplay:10.37,2013-01-16 23:41:00,
2013-01-16 18:46:00,74.8,68.2,30.04,South,180,1.0,8.0,80,0.00,CLR,CLR,0.00,0.0,WeatherDisplay:10.37,2013-01-16 23:46:00,
2013-01-16 18:51:00,74.8,68.2,30.04,South,180,1.0,8.0,80,0.00,CLR,CLR,0.00,0.0,WeatherDisplay:10.37,2013-01-16 23:51:00,
2013-01-16 18:56:00,74.8,68.2,30.04,South,180,1.0,8.0,80,0.00,CLR,CLR,0.00,0.0,WeatherDisplay:10.37,2013-01-16 23:56:00,
2013-01-16 19:01:00,74.5,67.9,30.05,South,180,1.0,8.0,80,0.00,CLR,CLR,0.00,0.0,WeatherDisplay:10.37,2013-01-17 00:01:00,
2013-01-16 19:06:00,74.5,67.9,30.05,South,180,1.0,7.0,80,0.00,CLR,CLR,0.00,0.0,WeatherDisplay:10.37,2013-01-17 00:06:00,
2013-01-16 19:11:00,74.5,67.9,30.05,South,180,1.0,7.0,80,0.00,CLR,CLR,0.00,0.0,WeatherDisplay:10.37,2013-01-17 00:11:00,
2013-01-16 19:16:00,74.5,67.9,30.05,South,180,1.0,7.0,80,0.00,CLR,CLR,0.00,0.0,WeatherDisplay:10.37,2013-01-17 00:16:00,
2013-01-16 19:21:00,74.5,67.9,30.05,South,180,1.0,7.0,80,0.00,CLR,CLR,0.00,0.0,WeatherDisplay:10.37,2013-01-17 00:21:00,
2013-01-16 19:26:00,74.5,67.9,30.05,South,180,1.0,7.0,80,0.00,CLR,CLR,0.00,0.0,WeatherDisplay:10.37,2013-01-17 00:26:00,
2013-01-16 19:31:00,74.1,67.5,30.05,South,180,1.0,7.0,80,0.00,CLR,CLR,0.00,0.0,WeatherDisplay:10.37,2013-01-17 00:31:00,
2013-01-16 19:36:00,74.1,67.5,30.05,South,180,1.0,7.0,80,0.00,CLR,CLR,0.00,0.0,WeatherDisplay:10.37,2013-01-17 00:36:00,
2013-01-16 19:41:00,74.1,67.5,30.05,South,180,1.0,7.0,80,0.00,CLR,CLR,0.00,0.0,WeatherDisplay:10.37,2013-01-17 00:41:00,
2013-01-16 19:46:00,74.1,67.5,30.05,South,180,1.0,7.0,80,0.00,CLR,CLR,0.00,0.0,WeatherDisplay:10.37,2013-01-17 00:46:00,
2013-01-16 19:51:00,74.1,67.5,30.05,South,180,1.0,7.0,80,0.00,CLR,CLR,0.00,0.0,WeatherDisplay:10.37,2013-01-17 00:51:00,
2013-01-16 19:56:00,74.1,67.5,30.05,South,180,1.0,7.0,80,0.00,CLR,CLR,0.00,0.0,WeatherDisplay:10.37,2013-01-17 00:56:00,
2013-01-16 20:01:00,73.8,68.0,30.06,South,180,1.0,7.0,82,0.00,CLR,CLR,0.00,0.0,WeatherDisplay:10.37,2013-01-17 01:01:00,
2013-01-16 20:06:00,73.8,68.0,30.06,South,180,1.0,7.0,82,0.00,CLR,CLR,0.00,0.0,WeatherDisplay:10.37,2013-01-17 01:06:00,
2013-01-16 20:11:00,73.8,68.0,30.06,South,180,1.0,7.0,82,0.00,CLR,CLR,0.00,0.0,WeatherDisplay:10.37,2013-01-17 01:11:00,
2013-01-16 20:16:00,73.8,68.0,30.06,South,180,1.0,7.0,82,0.00,CLR,CLR,0.00,0.0,WeatherDisplay:10.37,2013-01-17 01:16:00,
2013-01-16 20:21:00,73.8,68.0,30.06,South,180,1.0,7.0,82,0.00,CLR,CLR,0.00,0.0,WeatherDisplay:10.37,2013-01-17 01:21:00,
2013-01-16 20:26:00,73.8,68.0,30.06,South,180,1.0,7.0,82,0.00,CLR,CLR,0.00,0.0,WeatherDisplay:10.37,2013-01-17 01:26:00,
2013-01-16 20:31:00,73.5,67.7,30.06,South,180,1.0,8.0,82,0.00,CLR,CLR,0.00,0.0,WeatherDisplay:10.37,2013-01-17 01:31:00,
2013-01-16 20:36:00,73.5,67.7,30.06,South,180,1.0,8.0,82,0.00,CLR,CLR,0.00,0.0,WeatherDisplay:10.37,2013-01-17 01:36:00,
2013-01-16 20:41:00,73.5,67.7,30.06,South,180,1.0,8.0,82,0.00,CLR,CLR,0.00,0.0,WeatherDisplay:10.37,2013-01-17 01:41:00,
2013-01-16 20:46:00,73.5,67.7,30.06,South,180,1.0,8.0,82,0.00,CLR,CLR,0.00,0.0,WeatherDisplay:10.37,2013-01-17 01:46:00,
2013-01-16 20:51:00,73.5,67.7,30.06,South,180,1.0,8.0,82,0.00,CLR,CLR,0.00,0.0,WeatherDisplay:10.37,2013-01-17 01:51:00,
2013-01-16 20:56:00,73.5,67.7,30.06,South,180,1.0,8.0,82,0.00,CLR,CLR,0.00,0.0,WeatherDisplay:10.37,2013-01-17 01:56:00,
2013-01-16 21:01:00,73.2,67.7,30.06,South,180,1.0,8.0,83,0.00,CLR,CLR,0.00,0.0,WeatherDisplay:10.37,2013-01-17 02:01:00,
2013-01-16 21:06:00,73.2,67.7,30.06,South,180,1.0,6.0,83,0.00,CLR,CLR,0.00,0.0,WeatherDisplay:10.37,2013-01-17 02:06:00,
2013-01-16 21:11:00,73.2,67.7,30.06,South,180,1.0,6.0,83,0.00,CLR,CLR,0.00,0.0,WeatherDisplay:10.37,2013-01-17 02:11:00,
2013-01-16 21:16:00,73.2,67.7,30.06,South,180,1.0,6.0,83,0.00,CLR,CLR,0.00,0.0,WeatherDisplay:10.37,2013-01-17 02:16:00,
2013-01-16 21:21:00,73.2,67.7,30.06,South,180,1.0,6.0,83,0.00,CLR,CLR,0.00,0.0,WeatherDisplay:10.37,2013-01-17 02:21:00,
2013-01-16 21:26:00,73.2,67.7,30.06,South,180,1.0,6.0,83,0.00,CLR,CLR,0.00,0.0,WeatherDisplay:10.37,2013-01-17 02:26:00,
2013-01-16 21:31:00,73.0,67.5,30.06,South,180,1.0,6.0,83,0.00,CLR,CLR,0.00,0.0,WeatherDisplay:10.37,2013-01-17 02:31:00,
2013-01-16 21:36:00,73.0,67.5,30.06,South,180,1.0,6.0,83,0.00,CLR,CLR,0.00,0.0,WeatherDisplay:10.37,2013-01-17 02:36:00,
2013-01-16 21:41:00,73.0,67.5,30.06,South,180,1.0,6.0,83,0.00,CLR,CLR,0.00,0.0,WeatherDisplay:10.37,2013-01-17 02:41:00,
2013-01-16 21:46:00,73.0,67.5,30.06,South,180,1.0,6.0,83,0.00,CLR,CLR,0.00,0.0,WeatherDisplay:10.37,2013-01-17 02:46:00,
2013-01-16 21:51:00,73.0,67.5,30.06,South,180,1.0,6.0,83,0.00,CLR,CLR,0.00,0.0,WeatherDisplay:10.37,2013-01-17 02:51:00,
2013-01-16 21:56:00,73.0,67.5,30.06,South,180,1.0,6.0,83,0.00,CLR,CLR,0.00,0.0,WeatherDisplay:10.37,2013-01-17 02:56:00,
2013-01-16 22:01:00,72.9,67.4,30.06,South,180,1.0,7.0,83,0.00,CLR,CLR,0.00,0.0,WeatherDisplay:10.37,2013-01-17 03:01:00,
2013-01-16 22:06:00,72.9,67.4,30.06,South,180,1.0,7.0,83,0.00,CLR,CLR,0.00,0.0,WeatherDisplay:10.37,2013-01-17 03:06:00,
2013-01-16 22:11:00,72.9,67.4,30.06,South,180,1.0,7.0,83,0.00,CLR,CLR,0.00,0.0,WeatherDisplay:10.37,2013-01-17 03:11:00,
2013-01-16 22:16:00,72.9,67.4,30.06,South,180,1.0,7.0,83,0.00,CLR,CLR,0.00,0.0,WeatherDisplay:10.37,2013-01-17 03:16:00,
2013-01-16 22:21:00,72.9,67.4,30.06,South,180,1.0,7.0,83,0.00,CLR,CLR,0.00,0.0,WeatherDisplay:10.37,2013-01-17 03:21:00,
2013-01-16 22:26:00,72.9,67.4,30.06,South,180,1.0,7.0,83,0.00,CLR,CLR,0.00,0.0,WeatherDisplay:10.37,2013-01-17 03:26:00,
2013-01-16 22:31:00,72.7,67.9,30.05,South,180,1.0,7.0,85,0.00,CLR,CLR,0.00,0.0,WeatherDisplay:10.37,2013-01-17 03:31:00,
2013-01-16 22:36:00,72.7,67.9,30.05,South,180,1.0,5.0,85,0.00,CLR,CLR,0.00,0.0,WeatherDisplay:10.37,2013-01-17 03:36:00,
2013-01-16 22:41:00,72.7,67.9,30.05,South,180,1.0,5.0,85,0.00,CLR,CLR,0.00,0.0,WeatherDisplay:10.37,2013-01-17 03:41:00,
2013-01-16 22:46:00,72.7,67.9,30.05,South,180,1.0,5.0,85,0.00,CLR,CLR,0.00,0.0,WeatherDisplay:10.37,2013-01-17 03:46:00,
2013-01-16 22:51:00,72.7,67.9,30.05,South,180,1.0,5.0,85,0.00,CLR,CLR,0.00,0.0,WeatherDisplay:10.37,2013-01-17 03:51:00,
2013-01-16 22:56:00,72.7,67.9,30.05,South,180,1.0,5.0,85,0.00,CLR,CLR,0.00,0.0,WeatherDisplay:10.37,2013-01-17 03:56:00,
2013-01-16 23:01:00,72.6,67.5,30.04,South,180,0.0,6.0,84,0.00,CLR,CLR,0.00,0.0,WeatherDisplay:10.37,2013-01-17 04:01:00,
2013-01-16 23:06:00,72.6,67.5,30.04,South,180,0.0,6.0,84,0.00,CLR,CLR,0.00,0.0,WeatherDisplay:10.37,2013-01-17 04:06:00,
2013-01-16 23:11:00,72.6,67.5,30.04,South,180,0.0,6.0,84,0.00,CLR,CLR,0.00,0.0,WeatherDisplay:10.37,2013-01-17 04:11:00,
2013-01-16 23:16:00,72.6,67.5,30.04,South,180,0.0,6.0,84,0.00,CLR,CLR,0.00,0.0,WeatherDisplay:10.37,2013-01-17 04:16:00,
2013-01-16 23:21:00,72.6,67.5,30.04,South,180,0.0,6.0,84,0.00,CLR,CLR,0.00,0.0,WeatherDisplay:10.37,2013-01-17 04:21:00,
2013-01-16 23:26:00,72.6,67.5,30.04,South,180,0.0,6.0,84,0.00,CLR,CLR,0.00,0.0,WeatherDisplay:10.37,2013-01-17 04:26:00,
2013-01-16 23:31:00,72.2,67.4,30.04,South,180,0.0,6.0,85,0.00,CLR,CLR,0.00,0.0,WeatherDisplay:10.37,2013-01-17 04:31:00,
2013-01-16 23:36:00,72.2,67.4,30.04,South,180,0.0,5.0,85,0.00,CLR,CLR,0.00,0.0,WeatherDisplay:10.37,2013-01-17 04:36:00,
2013-01-16 23:41:00,72.2,67.4,30.04,South,180,0.0,5.0,85,0.00,CLR,CLR,0.00,0.0,WeatherDisplay:10.37,2013-01-17 04:41:00,
2013-01-16 23:46:00,72.2,67.4,30.04,South,180,0.0,5.0,85,0.00,CLR,CLR,0.00,0.0,WeatherDisplay:10.37,2013-01-17 04:46:00,
2013-01-16 23:51:00,72.2,67.4,30.04,South,180,0.0,5.0,85,0.00,CLR,CLR,0.00,0.0,WeatherDisplay:10.37,2013-01-17 04:51:00,
2013-01-16 23:56:00,72.2,67.4,30.04,South,180,0.0,5.0,85,0.00,CLR,CLR,0.00,0.0,WeatherDisplay:10.37,2013-01-17 04:56:00,